Location: Unspecified
(0.0000°N, 0.0000°E)
Time: 07:30:44
(UTC+00:00)

Kosmos-648 - Pass Details

Date: 11 July 2022
Orbit: 1437 x 1489 km, 74.0° (Epoch: 16 August)

Event Time Altitude Azimuth Distance (km) Brightness Sun altitude
Rises 20:10:50 0° 331° (NNW) 4,602 ? -28.8°
Reaches altitude 10° 20:13:58 10° 324° (NW) 3,623 ? -29.5°
Maximum altitude 20:22:00 40° 258° (WSW) 2,060 ? -31.3°
Enters shadow 20:30:01 10° 192° (SSW) 3,604 ? -33.1°
